When you browse on this site, cookies collect data to enhance your experience and personalize the content and advertising you see.
Visit our Privacy Policy to learn more. By continuing to use the site, you agree to this use of cookies and data.
  • In Österreich
  • Länderverzeichnis
  • Für 7 Tage
  • Wassertemperatur
  • Satellitenkarten
  • Wetterkarte
  • News
  • Widgets
  • user-avatar
    Anmelden

    Stündliche Wetter Jerewan

    Heute, 25 Juni, Dienstag

    Zeit Temperatur Niederschläge Wind Luftdruck Luftfeuchtigkeit
    00:00 +25°C° 0.1 mm 2 m/S 691 mmHg 59%
    01:00 +25°C° 0 mm 2 m/S 691 mmHg 60%
    02:00 +24°C° 0 mm 2 m/S 690 mmHg 60%
    03:00 +24°C° 0 mm 2 m/S 690 mmHg 61%
    04:00 +24°C° 0 mm 2 m/S 691 mmHg 59%
    05:00 +25°C° 0 mm 2 m/S 691 mmHg 58%
    06:00 +25°C° 0 mm 2 m/S 691 mmHg 56%
    07:00 +27°C° 0 mm 2 m/S 691 mmHg 51%
    08:00 +29°C° 0 mm 2 m/S 691 mmHg 46%
    09:00 +31°C° 0 mm 2 m/S 691 mmHg 40%
    10:00 +32°C° 0 mm 1 m/S 691 mmHg 37%
    11:00 +34°C° 0 mm 1 m/S 691 mmHg 33%
    12:00 +35°C° 0 mm 1 m/S 692 mmHg 30%
    13:00 +36°C° 0 mm 1 m/S 691 mmHg 28%
    14:00 +37°C° 0 mm 1 m/S 691 mmHg 25%
    15:00 +39°C° 0 mm 1 m/S 691 mmHg 23%
    16:00 +38°C° 0 mm 2 m/S 691 mmHg 25%
    17:00 +37°C° 0 mm 3 m/S 691 mmHg 28%
    18:00 +37°C° 0 mm 4 m/S 691 mmHg 30%
    19:00 +34°C° 0 mm 4 m/S 691 mmHg 34%
    20:00 +31°C° 0 mm 3 m/S 691 mmHg 39%
    21:00 +29°C° 0 mm 3 m/S 691 mmHg 44%
    22:00 +28°C° 0 mm 3 m/S 691 mmHg 46%
    23:00 +27°C° 0 mm 2 m/S 691 mmHg 49%

    Morgen, 26 Juni, Mittwoch

    Zeit Temperatur Niederschläge Wind Luftdruck Luftfeuchtigkeit
    00:00 +26°C° 0 mm 2 m/S 691 mmHg 52%
    01:00 +26°C° 0 mm 2 m/S 691 mmHg 53%
    02:00 +25°C° 0 mm 2 m/S 691 mmHg 54%
    03:00 +24°C° 0 mm 2 m/S 691 mmHg 56%
    04:00 +25°C° 0 mm 2 m/S 691 mmHg 54%
    05:00 +25°C° 0 mm 2 m/S 691 mmHg 53%
    06:00 +26°C° 0 mm 1 m/S 691 mmHg 52%
    07:00 +28°C° 0 mm 1 m/S 691 mmHg 47%
    08:00 +30°C° 0 mm 1 m/S 692 mmHg 42%
    09:00 +31°C° 0 mm 1 m/S 692 mmHg 37%
    10:00 +33°C° 0 mm 1 m/S 692 mmHg 34%
    11:00 +34°C° 0 mm 1 m/S 692 mmHg 31%
    12:00 +36°C° 0 mm 1 m/S 692 mmHg 28%
    13:00 +37°C° 0 mm 1 m/S 691 mmHg 27%
    14:00 +37°C° 0 mm 1 m/S 691 mmHg 25%
    15:00 +39°C° 0 mm 2 m/S 691 mmHg 23%
    16:00 +38°C° 0 mm 3 m/S 690 mmHg 26%
    17:00 +36°C° 0 mm 3 m/S 690 mmHg 30%
    18:00 +35°C° 0 mm 4 m/S 690 mmHg 33%
    19:00 +33°C° 0.3 mm 4 m/S 690 mmHg 40%
    20:00 +29°C° 0.3 mm 3 m/S 690 mmHg 47%
    21:00 +27°C° 0.3 mm 3 m/S 690 mmHg 54%
    22:00 +26°C° 0.3 mm 3 m/S 690 mmHg 57%
    23:00 +25°C° 0.3 mm 2 m/S 689 mmHg 60%

    übermorgen, 27 Juni, Donnerstag

    Zeit Temperatur Niederschläge Wind Luftdruck Luftfeuchtigkeit
    00:00 +25°C° 0.3 mm 2 m/S 689 mmHg 63%
    01:00 +24°C° 0.3 mm 2 m/S 689 mmHg 65%
    02:00 +24°C° 0.3 mm 2 m/S 689 mmHg 67%
    03:00 +23°C° 0.3 mm 2 m/S 689 mmHg 69%
    04:00 +24°C° 0.4 mm 2 m/S 689 mmHg 68%
    05:00 +24°C° 0.4 mm 2 m/S 689 mmHg 67%
    06:00 +24°C° 0.4 mm 1 m/S 689 mmHg 65%
    07:00 +26°C° 0.1 mm 1 m/S 689 mmHg 59%
    08:00 +28°C° 0.1 mm 1 m/S 689 mmHg 53%
    09:00 +29°C° 0.1 mm 1 m/S 689 mmHg 47%
    10:00 +31°C° 0.1 mm 1 m/S 689 mmHg 42%
    11:00 +32°C° 0.1 mm 1 m/S 688 mmHg 38%
    12:00 +34°C° 0.1 mm 1 m/S 688 mmHg 33%
    13:00 +35°C° 0 mm 1 m/S 688 mmHg 32%
    14:00 +35°C° 0 mm 1 m/S 688 mmHg 30%
    15:00 +36°C° 0 mm 1 m/S 687 mmHg 28%
    16:00 +35°C° 0.2 mm 2 m/S 687 mmHg 33%
    17:00 +33°C° 0.2 mm 4 m/S 687 mmHg 39%
    18:00 +30°C° 0.2 mm 5 m/S 686 mmHg 45%
    19:00 +29°C° 0.5 mm 4 m/S 686 mmHg 50%
    20:00 +27°C° 0.5 mm 3 m/S 687 mmHg 55%
    21:00 +25°C° 0.5 mm 2 m/S 687 mmHg 60%
    22:00 +25°C° 0.1 mm 2 m/S 687 mmHg 61%
    23:00 +25°C° 0.1 mm 1 m/S 687 mmHg 62%

    28 Juni, Freitag

    Zeit Temperatur Niederschläge Wind Luftdruck Luftfeuchtigkeit
    00:00 +25°C° 0.1 mm 1 m/S 686 mmHg 63%
    01:00 +24°C° 0.2 mm 1 m/S 686 mmHg 64%
    02:00 +24°C° 0.2 mm 1 m/S 686 mmHg 66%
    03:00 +23°C° 0.2 mm 1 m/S 686 mmHg 68%
    04:00 +23°C° 0.3 mm 1 m/S 686 mmHg 67%
    05:00 +24°C° 0.3 mm 1 m/S 685 mmHg 66%
    06:00 +24°C° 0.3 mm 1 m/S 685 mmHg 66%
    07:00 +25°C° 0 mm 1 m/S 685 mmHg 60%
    08:00 +27°C° 0 mm 1 m/S 685 mmHg 55%
    09:00 +28°C° 0 mm 2 m/S 685 mmHg 50%
    10:00 +30°C° 0 mm 1 m/S 685 mmHg 45%
    11:00 +31°C° 0 mm 1 m/S 685 mmHg 41%
    12:00 +33°C° 0 mm 1 m/S 684 mmHg 36%
    13:00 +34°C° 0.1 mm 2 m/S 684 mmHg 35%
    14:00 +35°C° 0.1 mm 2 m/S 684 mmHg 33%
    15:00 +35°C° 0.1 mm 3 m/S 684 mmHg 32%
    16:00 +32°C° 0.9 mm 5 m/S 684 mmHg 43%
    17:00 +27°C° 0.9 mm 6 m/S 684 mmHg 54%
    18:00 +23°C° 0.9 mm 8 m/S 683 mmHg 66%
    19:00 +23°C° 0.4 mm 6 m/S 684 mmHg 67%
    20:00 +22°C° 0.4 mm 3 m/S 684 mmHg 69%
    21:00 +23°C° 0.4 mm 1 m/S 685 mmHg 71%
    22:00 +22°C° 0.2 mm 1 m/S 685 mmHg 73%
    23:00 +22°C° 0.2 mm 1 m/S 684 mmHg 75%

    29 Juni, Samstag

    Zeit Temperatur Niederschläge Wind Luftdruck Luftfeuchtigkeit
    00:00 +22°C° 0.2 mm 1 m/S 684 mmHg 78%
    01:00 +22°C° 0 mm 1 m/S 684 mmHg 77%
    02:00 +21°C° 0 mm 1 m/S 684 mmHg 77%
    03:00 +21°C° 0 mm 1 m/S 684 mmHg 77%
    04:00 +22°C° 0 mm 1 m/S 684 mmHg 75%
    05:00 +22°C° 0 mm 1 m/S 684 mmHg 73%
    06:00 +22°C° 0 mm 1 m/S 684 mmHg 71%
    07:00 +24°C° 0 mm 1 m/S 684 mmHg 64%
    08:00 +25°C° 0 mm 1 m/S 684 mmHg 58%
    09:00 +27°C° 0 mm 1 m/S 684 mmHg 52%
    10:00 +28°C° 0.1 mm 1 m/S 684 mmHg 47%
    11:00 +30°C° 0.1 mm 1 m/S 684 mmHg 42%
    12:00 +31°C° 0.1 mm 1 m/S 684 mmHg 37%
    13:00 +32°C° 0.1 mm 1 m/S 683 mmHg 35%
    14:00 +33°C° 0.1 mm 1 m/S 683 mmHg 33%
    15:00 +33°C° 0.1 mm 1 m/S 683 mmHg 30%
    16:00 +31°C° 0.8 mm 2 m/S 682 mmHg 42%
    17:00 +28°C° 0.8 mm 4 m/S 682 mmHg 54%
    18:00 +25°C° 0.8 mm 5 m/S 681 mmHg 65%
    19:00 +23°C° 0.6 mm 4 m/S 682 mmHg 68%
    20:00 +22°C° 0.6 mm 4 m/S 683 mmHg 72%
    21:00 +22°C° 0.6 mm 3 m/S 683 mmHg 75%
    22:00 +23°C° 0.3 mm 2 m/S 684 mmHg 75%
    23:00 +21°C° 0.3 mm 2 m/S 684 mmHg 76%

    30 Juni, Sonntag

    Zeit Temperatur Niederschläge Wind Luftdruck Luftfeuchtigkeit
    00:00 +22°C° 0.3 mm 1 m/S 684 mmHg 76%
    01:00 +22°C° 0.1 mm 1 m/S 684 mmHg 78%
    02:00 +21°C° 0.1 mm 1 m/S 683 mmHg 80%
    03:00 +21°C° 0.1 mm 1 m/S 683 mmHg 82%
    04:00 +21°C° 0.1 mm 1 m/S 683 mmHg 79%
    05:00 +22°C° 0.1 mm 1 m/S 684 mmHg 76%
    06:00 +22°C° 0.1 mm 1 m/S 684 mmHg 74%
    07:00 +23°C° 0.1 mm 1 m/S 684 mmHg 67%
    08:00 +24°C° 0.1 mm 2 m/S 683 mmHg 61%
    09:00 +26°C° 0.1 mm 2 m/S 683 mmHg 54%
    10:00 +27°C° 0.2 mm 2 m/S 683 mmHg 49%
    11:00 +29°C° 0.2 mm 1 m/S 684 mmHg 44%
    12:00 +30°C° 0.2 mm 1 m/S 684 mmHg 38%
    13:00 +31°C° 0.2 mm 1 m/S 684 mmHg 37%
    14:00 +32°C° 0.2 mm 1 m/S 684 mmHg 35%
    15:00 +32°C° 0.2 mm 1 m/S 683 mmHg 33%
    16:00 +30°C° 0.9 mm 2 m/S 683 mmHg 43%
    17:00 +28°C° 0.9 mm 2 m/S 683 mmHg 54%
    18:00 +25°C° 0.9 mm 3 m/S 683 mmHg 64%
    19:00 +24°C° 0.2 mm 3 m/S 683 mmHg 67%
    20:00 +24°C° 0.2 mm 3 m/S 684 mmHg 70%
    21:00 +22°C° 0.2 mm 3 m/S 684 mmHg 74%
    22:00 +21°C° 0.1 mm 3 m/S 684 mmHg 72%
    23:00 +21°C° 0.1 mm 3 m/S 684 mmHg 70%
    Mehr zeigen